Find OneWeb SL0244

NORAD ID: 48776 Int'l Des: 2021-045 Owner: ONEWEBN Country: UK Constellation: oneweb operational
LEOCIRCULARPOLARONEWEB_TYPE

Live Position

Loading 3D Globe...

About OneWeb SL0244

Description loading...

Upcoming Passes

Passes for default location (London). Set your location on the main map for personalized predictions.

Altitude History

Loading altitude history...

Two-Line Element Set

1 48776U 21045K 26127.07952699 .00000185 00000-0 45644-3 0 9999
2 48776 87.8980 267.3713 0001852 94.2085 265.9257 13.15549720239565
Epoch: May 7, 2026 • Age: 12 hours

Current Status

Altitude 1209.7 km
Velocity 7.25 km/s
Sub-Earth Point -19.93°S, 14.52°E
Launch Date May 28, 2021
Age 4.9 years
Type internet

Technical Details

Classification Payload
Mass 148.00 kg
Dry Mass 140.00 kg
Total Mass 148.00 kg
Length 1.30 m
Diameter 1.00 m
Span 5.00 m
Shape Trapezoid+2 pan
Manufacturer ONEWUS
Bus Type ARROW
Phase Status In Orbit
Owner/State ONEWEBN/UK

Most Searched